Regina,

9:59 AM CST on December 14, 2017 (GMT -0600)
Regina

Weather History for CYQR - January, 2013

Change the Weather History Date:

Friday, January 4, 2013

  Actual Average Record
Temperature  
Mean Temperature 8 °F -  
Max Temperature 14 °F 13 °F 39 °F (2012)
Min Temperature 3 °F -7 °F -36 °F (2005)
Degree Days  
Heating Degree Days 56    
Moisture  
Dew Point 6 °F    
Average Humidity 87    
Maximum Humidity 93    
Minimum Humidity 80    
Precipitation  
Precipitation 0.00 in 0.02 in - ()
Sea Level Pressure  
Sea Level Pressure 30.10 in    
Wind  
Wind Speed 7 mph ()    
Max Wind Speed 15 mph    
Max Gust Speed -    
Visibility 14.0 miles    
Events      
Averages and records for this station are not official NWS values.
T = Trace of Precipitation, MM = Missing Value Source: Averaged Metar Reports

Daily Weather History Graph

Daily Weather History Graph

Search for Another Location

Airport or City:

Trip Planner

Search our weather history database for the weather conditions in past years. The results will help you decide how hot, cold, wet, or windy it might be!

Date:

Astronomy

Jan. 04, 2013 Rise Set
Actual Time 8:58 AM CST 5:09 PM CST
Civil Twilight 8:20 AM CST 5:47 PM CST
Nautical Twilight 7:38 AM CST 6:29 PM CST
Astronomical Twilight 6:59 AM CST 7:08 PM CST
Moon 12:32 AM CST (1/4) 11:54 AM CST (1/4)
Length of Visible Light 9h 27m
Length of Day
8h 10m
Waning Gibbous, 55% of the Moon is Illuminated
Jan 4
Waning Gibbous
Jan 4
Last Quarter
Jan 11
New
Jan 18
First Quarter
Jan 26
Full

Hourly Weather History & Observations

Time (CST) Temp. Windchill Dew Point Humidity Pressure Visibility Wind Dir Wind Speed Gust Speed Precip Events Conditions
12:00 AM 7 °F - 4 °F 83% 30.12 in 9 mi West 9.2 mph - -  
12:00 AM 5.0 °F -8.1 °F 3.2 °F 92% 30.12 in 15.0 mi West 8.1 mph - N/A   Clear
1:00 AM 10.4 °F 0.8 °F 6.8 °F 85% 30.12 in 15.0 mi WNW 5.8 mph - N/A   Clear
3:00 AM 5.0 °F -10.0 °F 3.2 °F 92% 30.13 in 15.0 mi West 10.4 mph - N/A   Clear
4:00 AM 5.0 °F - 1.4 °F 85% 30.15 in 15.0 mi WNW 2.3 mph - N/A   Clear
5:00 AM 6.8 °F -4.8 °F 5.0 °F 92% 30.14 in 15.0 mi NNW 6.9 mph - N/A   Clear
6:00 AM 7 °F - 6 °F 93% 30.15 in 9 mi NNW 2.3 mph - -  
6:00 AM 8.6 °F - 5.0 °F 85% 30.15 in 15.0 mi North 2.3 mph - N/A   Mostly Cloudy
7:00 AM 5.0 °F -2.1 °F 1.4 °F 85% 30.13 in 15.0 mi NE 3.5 mph - N/A   Mostly Cloudy
8:00 AM 3.2 °F -6.2 °F 1.4 °F 92% 30.13 in 15.0 mi East 4.6 mph - N/A   Mostly Cloudy
9:00 AM 3.2 °F -7.8 °F 1.4 °F 92% 30.12 in 15.0 mi SE 5.8 mph - N/A   Mostly Cloudy
10:00 AM 6.8 °F -0.1 °F 3.2 °F 85% 30.13 in 15.0 mi ESE 3.5 mph - N/A   Mostly Cloudy
11:00 AM 10.4 °F -2.4 °F 6.8 °F 85% 30.14 in 15.0 mi SE 9.2 mph - N/A   Partly Cloudy
12:00 PM 8 °F - 5 °F 80% 30.14 in 7 mi SE 8.1 mph - -  
12:00 PM 8.6 °F -3.7 °F 5.0 °F 85% 30.14 in 15.0 mi SE 8.1 mph - N/A   Partly Cloudy
1:00 PM 14.0 °F 1.2 °F 10.4 °F 86% 30.10 in 15.0 mi ESE 10.4 mph - N/A   Scattered Clouds
2:00 PM 14.0 °F -1.4 °F 10.4 °F 86% 30.09 in 15.0 mi SE 15.0 mph - N/A   Mostly Cloudy
3:00 PM 14.0 °F 2.0 °F 10.4 °F 86% 30.04 in 15.0 mi ESE 9.2 mph - N/A   Partly Cloudy
4:00 PM 14.0 °F -0.2 °F 10.4 °F 86% 30.04 in 15.0 mi SE 12.7 mph - N/A   Partly Cloudy
5:00 PM 12.2 °F -2.5 °F 8.6 °F 85% 30.04 in 15.0 mi ESE 12.7 mph - N/A   Partly Cloudy
6:00 PM 12 °F - 9 °F 82% 30.02 in 9 mi ESE 11.5 mph - -  
6:00 PM 12.2 °F -2.5 °F 8.6 °F 85% 30.03 in 15.0 mi ESE 12.7 mph - N/A   Partly Cloudy
7:00 PM 12.2 °F -3.1 °F 8.6 °F 85% 30.01 in 15.0 mi ESE 13.8 mph - N/A   Partly Cloudy
8:00 PM 12.2 °F -2.5 °F 8.6 °F 85% 30.02 in 15.0 mi ESE 12.7 mph - N/A   Partly Cloudy
9:00 PM 10.4 °F -1.5 °F 6.8 °F 85% 30.04 in 15.0 mi ESE 8.1 mph - N/A   Partly Cloudy
10:00 PM 8.6 °F -4.7 °F 6.8 °F 92% 30.06 in 15.0 mi North 9.2 mph - N/A   Partly Cloudy
11:00 PM 8.6 °F -2.6 °F 5.0 °F 85% 30.07 in 15.0 mi NE 6.9 mph - N/A   Partly Cloudy